STARLINK-35263, 65597

Orbit data source: Space-Track

STARLINK-35263, 65597 is a payload satellite owned by SpaceX/Seattle (US) in SSO that was launched on Sat, 13 Sep 2025 UTC via an FALCON 9 launch vehicle from the Air Force Eastern Test Range (AFETR). Payload-class satellites include a variety of spacecraft equipped with specific instruments for various scientific and technological missions. These include communications satellites like Starlink; space stations such as the ISS; scientific satellites like the Hubble; Earth observation satellites from companies like Planet Labs, Umbra, and HawkEye 360; GPS; miniature CubeSats for education and research; and military/defense satellites.

Loading next visibility...
Identifier
65597, 2025-207F
Orbit
SSO
Country
Flag of USUS
Related business
Manufacturer
SpaceX/Seattle
Mission
Operational Commercial Communications
Bus & Motor
STARLINK V2MO, Unknown motor
Mass
575 kg wet, ~530 kg dry
Launch date (UTC)
2025-09-13 (9 months ago)
Launch vehicle
FALCON 9
Launch site
Air Force Eastern Test Range (AFETR)
Object type
Payload
Rocket body
Debris
Shape & HBR
Box + 2 Pan, 17.7 m
Radar Cross Section
36.964 m², Large (>1 m²)

Expand to show TLE details & history
Last TLE update: 19 hours ago

TLE from 19 hours ago
0 STARLINK-35263
1 65597U 25207F   26166.33339167  .00001594  00000-0  11444-3 0  9990
2 65597  97.3577 233.9820 0002053 146.0576 214.0783 15.05653521 42956
Epoch: 2026-06-15T08:00Z
TLE epoch observation values (Epoch: 2026-06-15T08:00:05.040Z)
Latitude
-0.00002°
Longitude
-149.66028°
Altitude
553.751 km
Speed
7.584 km/s
True Right ascension
15h 35m 55s
True Declination
0° 00' 00"
Sunlit
Object was in full shadow at epoch
Visualization orbit readout
Latitude
Unknown
Longitude
Unknown
Altitude
Unknown
Speed
Unknown
Apparent Right ascension
Unknown
Apparent Declination
Unknown
Sunlit
N/A
Visualization observer readout
Local Sidereal Time
13:36:14
Azimuth
Unknown
Elevation
Unknown
Doppler factor
Unknown
Orbital elements
Apogee altitude
547.905 km
Perigee altitude
545.062 km
Semi-major axis
6,924.62 km
Eccentricity
0.00021
Inclination
97.3577°
RAAN
233.982°
Arg. of periapsis
146.0576°
True anomaly
214.06512°
Mean anomaly
214.0783°
Eccentric anomaly
214.07171°
Mean motion
3.7666 °/min
Orbital period
95.58 mins
BSTAR
0.00011444
Loading maneuver chart data...
Computing Atmospheric mass density...
Loading historical data...
Loading historical data...
Loading historical data...
Loading historical data...
Loading historical data...
Loading historical data...
Loading historical data...

Documentation

Showing up to 5 results
|